Location: Lugrin
(46.4033°N, 6.6674°E)
Time: 08:18:07
(UTC+00:00)

Tsikada Rocket - Pass Details

Date: 23 January 2021
Orbit: 957 x 1009 km, 82.9° (Epoch: 04 March)

Event Time Altitude Azimuth Distance (km) Brightness Sun altitude
Rises 18:20:28 0° 248° (WSW) 3,697 8.4 -19.8°
Reaches altitude 10° 18:24:41 10° 275° (W) 2,741 7.5 -20.5°
Maximum altitude 18:27:27 13° 301° (WNW) 2,518 6.8 -21.0°
Drops below altitude 10° 18:30:13 10° 328° (NNW) 2,732 6.7 -21.4°
Sets 18:34:26 0° 355° (N) 3,673 7.0 -22.2°
